CUTE-1.7+APD II (CO-65)

Last updated on Dec. 9, 2021, 12:02 a.m. UTC

1 32785U 08021C   21342.53888818  .00000467  00000+0  55330-4 0  9993
2 32785  97.6334 314.8455 0013733 141.0874 219.1335 14.88920045738071
UTC
Height (km)
Latitude
Longitude
Inclination
Orbital Period
UTC large
Height (km)
Speed (km/s)
/
Latitude / Longitude
Inclination (degrees)
Orbital Period (minutes)
Azimuth
Elevation
Range (km)
Doppler Factor
iOS Compass Heading
iOS Angle